Time,TemperatureF,DewpointF,PressureIn,WindDirection,WindDirectionDegrees,WindSpeedMPH,WindSpeedGustMPH,Humidity,HourlyPrecipIn,Conditions,Clouds,dailyrainin,SoftwareType,DateUTC
2013-11-08 00:01:00,42.5,32.7,30.16,North,9,0.0,0.0,68,0.00,CLR,,0.00,WeatherDisplay:10.37,2013-11-08 05:01:00,
2013-11-08 00:02:00,42.5,32.7,30.16,North,9,0.0,0.0,68,0.00,CLR,,0.00,WeatherDisplay:10.37,2013-11-08 05:02:00,
2013-11-08 00:07:00,42.5,33.0,30.17,North,9,0.0,0.0,69,0.00,CLR,,0.00,WeatherDisplay:10.37,2013-11-08 05:07:00,
2013-11-08 00:12:00,42.3,32.8,30.17,North,9,0.0,0.0,69,0.00,CLR,,0.00,WeatherDisplay:10.37,2013-11-08 05:12:00,
2013-11-08 00:17:00,42.2,32.8,30.17,North,9,0.0,0.0,69,0.00,CLR,,0.00,WeatherDisplay:10.37,2013-11-08 05:17:00,
2013-11-08 00:22:00,42.0,32.6,30.17,North,9,0.0,0.0,69,0.00,CLR,,0.00,WeatherDisplay:10.37,2013-11-08 05:22:00,
2013-11-08 00:27:00,41.9,32.5,30.18,North,9,0.0,0.0,69,0.00,CLR,,0.00,WeatherDisplay:10.37,2013-11-08 05:27:00,
2013-11-08 00:32:00,41.9,32.5,30.18,North,9,0.0,0.0,69,0.00,CLR,,0.00,WeatherDisplay:10.37,2013-11-08 05:32:00,
2013-11-08 00:37:00,41.8,32.7,30.18,North,9,0.0,0.0,70,0.00,CLR,,0.00,WeatherDisplay:10.37,2013-11-08 05:37:00,
2013-11-08 00:42:00,41.8,32.7,30.18,North,9,0.0,0.0,70,0.00,CLR,,0.00,WeatherDisplay:10.37,2013-11-08 05:42:00,
2013-11-08 00:47:00,41.8,32.7,30.18,North,9,0.0,0.0,70,0.00,CLR,,0.00,WeatherDisplay:10.37,2013-11-08 05:47:00,
2013-11-08 00:52:00,41.8,32.7,30.18,North,9,0.0,0.0,70,0.00,CLR,,0.00,WeatherDisplay:10.37,2013-11-08 05:52:00,
2013-11-08 00:57:00,41.7,32.6,30.18,North,9,0.0,0.0,70,0.00,CLR,,0.00,WeatherDisplay:10.37,2013-11-08 05:57:00,
2013-11-08 01:02:00,41.5,32.8,30.18,North,9,0.0,0.0,71,0.00,CLR,,0.00,WeatherDisplay:10.37,2013-11-08 06:02:00,
2013-11-08 01:07:00,41.4,33.0,30.18,North,9,0.0,0.0,72,0.00,CLR,,0.00,WeatherDisplay:10.37,2013-11-08 06:07:00,
2013-11-08 01:12:00,41.2,32.9,30.18,North,9,0.0,0.0,72,0.00,CLR,,0.00,WeatherDisplay:10.37,2013-11-08 06:12:00,
2013-11-08 01:17:00,41.1,32.8,30.18,North,9,0.0,0.0,72,0.00,CLR,,0.00,WeatherDisplay:10.37,2013-11-08 06:17:00,
2013-11-08 01:22:00,40.9,32.6,30.18,North,9,0.0,0.0,72,0.00,CLR,,0.00,WeatherDisplay:10.37,2013-11-08 06:22:00,
2013-11-08 01:27:00,40.8,32.8,30.18,North,9,0.0,0.0,73,0.00,CLR,,0.00,WeatherDisplay:10.37,2013-11-08 06:27:00,
2013-11-08 01:32:00,40.6,32.6,30.19,North,9,0.0,0.0,73,0.00,CLR,,0.00,WeatherDisplay:10.37,2013-11-08 06:32:00,
2013-11-08 01:37:00,40.5,32.5,30.19,North,9,0.0,0.0,73,0.00,CLR,,0.00,WeatherDisplay:10.37,2013-11-08 06:37:00,
2013-11-08 01:42:00,40.4,32.8,30.19,North,9,0.0,0.0,74,0.00,CLR,,0.00,WeatherDisplay:10.37,2013-11-08 06:42:00,
2013-11-08 01:47:00,40.3,32.7,30.19,North,9,0.0,0.0,74,0.00,CLR,,0.00,WeatherDisplay:10.37,2013-11-08 06:47:00,
2013-11-08 01:52:00,40.3,32.7,30.19,North,9,0.0,0.0,74,0.00,CLR,,0.00,WeatherDisplay:10.37,2013-11-08 06:52:00,
2013-11-08 01:57:00,40.2,32.6,30.19,North,9,0.0,0.0,74,0.00,CLR,,0.00,WeatherDisplay:10.37,2013-11-08 06:57:00,
2013-11-08 02:02:00,40.1,32.5,30.19,North,9,0.0,0.0,74,0.00,CLR,,0.00,WeatherDisplay:10.37,2013-11-08 07:02:00,
2013-11-08 02:07:00,40.0,32.4,30.19,North,9,0.0,0.0,74,0.00,CLR,,0.00,WeatherDisplay:10.37,2013-11-08 07:07:00,
2013-11-08 02:12:00,39.8,32.2,30.19,North,9,0.0,0.0,74,0.00,CLR,,0.00,WeatherDisplay:10.37,2013-11-08 07:12:00,
2013-11-08 02:17:00,39.6,32.0,30.20,North,9,0.0,0.0,74,0.00,CLR,,0.00,WeatherDisplay:10.37,2013-11-08 07:17:00,
2013-11-08 02:22:00,39.4,32.1,30.20,North,9,0.0,0.0,75,0.00,CLR,,0.00,WeatherDisplay:10.37,2013-11-08 07:22:00,
2013-11-08 02:27:00,39.3,32.0,30.20,North,9,0.0,0.0,75,0.00,CLR,,0.00,WeatherDisplay:10.37,2013-11-08 07:27:00,
2013-11-08 02:32:00,39.1,31.8,30.20,North,9,0.0,0.0,75,0.00,CLR,,0.00,WeatherDisplay:10.37,2013-11-08 07:32:00,
2013-11-08 02:37:00,38.9,32.0,30.20,North,9,0.0,0.0,76,0.00,CLR,,0.00,WeatherDisplay:10.37,2013-11-08 07:37:00,
2013-11-08 02:42:00,38.8,31.9,30.21,North,9,0.0,0.0,76,0.00,CLR,,0.00,WeatherDisplay:10.37,2013-11-08 07:42:00,
2013-11-08 02:47:00,38.7,31.8,30.21,North,9,0.0,0.0,76,0.00,CLR,,0.00,WeatherDisplay:10.37,2013-11-08 07:47:00,
2013-11-08 02:52:00,38.6,32.0,30.21,North,9,0.0,0.0,77,0.00,CLR,,0.00,WeatherDisplay:10.37,2013-11-08 07:52:00,
2013-11-08 02:57:00,38.3,32.0,30.21,North,9,0.0,0.0,78,0.00,CLR,,0.00,WeatherDisplay:10.37,2013-11-08 07:57:00,
2013-11-08 03:02:00,37.9,32.0,30.21,North,9,0.0,0.0,79,0.00,CLR,,0.00,WeatherDisplay:10.37,2013-11-08 08:02:00,
2013-11-08 03:07:00,37.5,31.6,30.21,North,9,0.0,0.0,79,0.00,CLR,,0.00,WeatherDisplay:10.37,2013-11-08 08:07:00,
2013-11-08 03:12:00,37.1,31.2,30.21,North,9,0.0,0.0,79,0.00,CLR,,0.00,WeatherDisplay:10.37,2013-11-08 08:12:00,
2013-11-08 03:17:00,36.9,31.0,30.21,North,9,0.0,0.0,79,0.00,CLR,,0.00,WeatherDisplay:10.37,2013-11-08 08:17:00,
2013-11-08 03:22:00,37.0,31.1,30.21,North,9,0.0,0.0,79,0.00,CLR,,0.00,WeatherDisplay:10.37,2013-11-08 08:22:00,
2013-11-08 03:27:00,37.2,31.0,30.21,North,9,0.0,0.0,78,0.00,CLR,,0.00,WeatherDisplay:10.37,2013-11-08 08:27:00,
2013-11-08 03:32:00,37.3,31.1,30.22,North,9,0.0,0.0,78,0.00,CLR,,0.00,WeatherDisplay:10.37,2013-11-08 08:32:00,
2013-11-08 03:37:00,37.3,31.1,30.22,North,9,0.0,0.0,78,0.00,CLR,,0.00,WeatherDisplay:10.37,2013-11-08 08:37:00,
2013-11-08 03:42:00,37.3,31.1,30.22,North,9,0.0,0.0,78,0.00,CLR,,0.00,WeatherDisplay:10.37,2013-11-08 08:42:00,
2013-11-08 03:47:00,37.2,31.3,30.22,North,9,0.0,0.0,79,0.00,CLR,,0.00,WeatherDisplay:10.37,2013-11-08 08:47:00,
2013-11-08 03:52:00,37.0,31.1,30.22,North,9,0.0,0.0,79,0.00,CLR,,0.00,WeatherDisplay:10.37,2013-11-08 08:52:00,
2013-11-08 03:57:00,36.9,31.0,30.22,North,9,0.0,0.0,79,0.00,CLR,,0.00,WeatherDisplay:10.37,2013-11-08 08:57:00,
2013-11-08 04:02:00,36.6,30.7,30.22,North,9,0.0,0.0,79,0.00,CLR,,0.00,WeatherDisplay:10.37,2013-11-08 09:02:00,
2013-11-08 04:07:00,36.5,30.6,30.22,North,9,0.0,0.0,79,0.00,CLR,,0.00,WeatherDisplay:10.37,2013-11-08 09:07:00,
2013-11-08 04:12:00,36.3,30.7,30.22,North,9,0.0,0.0,80,0.00,CLR,,0.00,WeatherDisplay:10.37,2013-11-08 09:12:00,
2013-11-08 04:17:00,36.1,30.8,30.22,North,9,0.0,0.0,81,0.00,CLR,,0.00,WeatherDisplay:10.37,2013-11-08 09:17:00,
2013-11-08 04:22:00,36.0,31.0,30.22,North,9,0.0,0.0,82,0.00,CLR,,0.00,WeatherDisplay:10.37,2013-11-08 09:22:00,
2013-11-08 04:27:00,35.9,30.9,30.23,North,9,0.0,0.0,82,0.00,CLR,,0.00,WeatherDisplay:10.37,2013-11-08 09:27:00,
2013-11-08 04:32:00,35.8,30.8,30.23,North,9,0.0,0.0,82,0.00,CLR,,0.00,WeatherDisplay:10.37,2013-11-08 09:32:00,
2013-11-08 04:37:00,35.8,31.1,30.23,North,9,0.0,0.0,83,0.00,CLR,,0.00,WeatherDisplay:10.37,2013-11-08 09:37:00,
2013-11-08 04:42:00,35.7,31.0,30.23,North,9,0.0,0.0,83,0.00,CLR,,0.00,WeatherDisplay:10.37,2013-11-08 09:42:00,
2013-11-08 04:47:00,35.7,31.0,30.23,North,9,0.0,0.0,83,0.00,CLR,,0.00,WeatherDisplay:10.37,2013-11-08 09:47:00,
2013-11-08 04:52:00,35.6,30.9,30.24,North,9,0.0,0.0,83,0.00,CLR,,0.00,WeatherDisplay:10.37,2013-11-08 09:52:00,
2013-11-08 04:57:00,35.6,30.9,30.23,North,9,0.0,0.0,83,0.00,CLR,,0.00,WeatherDisplay:10.37,2013-11-08 09:57:00,
2013-11-08 05:02:00,35.6,30.9,30.24,North,9,0.0,0.0,83,0.00,CLR,,0.00,WeatherDisplay:10.37,2013-11-08 10:02:00,
2013-11-08 05:07:00,35.5,30.8,30.24,North,9,0.0,0.0,83,0.00,CLR,,0.00,WeatherDisplay:10.37,2013-11-08 10:07:00,
2013-11-08 05:12:00,35.3,30.7,30.24,North,9,0.0,0.0,83,0.00,CLR,,0.00,WeatherDisplay:10.37,2013-11-08 10:12:00,
2013-11-08 05:17:00,35.2,30.6,30.24,North,9,0.0,0.0,83,0.00,CLR,,0.00,WeatherDisplay:10.37,2013-11-08 10:17:00,
2013-11-08 05:22:00,34.9,30.6,30.24,North,9,0.0,0.0,84,0.00,CLR,,0.00,WeatherDisplay:10.37,2013-11-08 10:22:00,
2013-11-08 05:27:00,34.7,30.4,30.24,North,9,0.0,0.0,84,0.00,CLR,,0.00,WeatherDisplay:10.37,2013-11-08 10:27:00,
2013-11-08 05:32:00,34.5,30.2,30.24,North,9,0.0,0.0,84,0.00,CLR,,0.00,WeatherDisplay:10.37,2013-11-08 10:32:00,
2013-11-08 05:37:00,34.4,30.1,30.25,North,9,0.0,0.0,84,0.00,CLR,,0.00,WeatherDisplay:10.37,2013-11-08 10:37:00,
2013-11-08 05:42:00,34.4,30.1,30.24,North,9,0.0,0.0,84,0.00,CLR,,0.00,WeatherDisplay:10.37,2013-11-08 10:42:00,
2013-11-08 05:47:00,34.2,29.9,30.25,North,9,0.0,0.0,84,0.00,CLR,,0.00,WeatherDisplay:10.37,2013-11-08 10:47:00,
2013-11-08 05:52:00,33.9,29.6,30.25,North,9,0.0,0.0,84,0.00,CLR,,0.00,WeatherDisplay:10.37,2013-11-08 10:52:00,
2013-11-08 05:57:00,33.7,29.7,30.25,North,9,0.0,0.0,85,0.00,CLR,,0.00,WeatherDisplay:10.37,2013-11-08 10:57:00,
2013-11-08 06:02:00,33.5,29.5,30.25,North,9,0.0,0.0,85,0.00,CLR,,0.00,WeatherDisplay:10.37,2013-11-08 11:02:00,
2013-11-08 06:07:00,33.4,29.7,30.25,North,9,0.0,0.0,86,0.00,CLR,,0.00,WeatherDisplay:10.37,2013-11-08 11:07:00,
2013-11-08 06:12:00,33.3,29.6,30.26,North,9,0.0,0.0,86,0.00,CLR,,0.00,WeatherDisplay:10.37,2013-11-08 11:12:00,
2013-11-08 06:17:00,33.1,29.4,30.26,North,9,0.0,0.0,86,0.00,CLR,,0.00,WeatherDisplay:10.37,2013-11-08 11:17:00,
2013-11-08 06:22:00,32.9,29.2,30.26,North,9,0.0,0.0,86,0.00,CLR,,0.00,WeatherDisplay:10.37,2013-11-08 11:22:00,
2013-11-08 06:27:00,32.8,29.1,30.26,North,9,0.0,0.0,86,0.00,CLR,,0.00,WeatherDisplay:10.37,2013-11-08 11:27:00,
2013-11-08 06:32:00,32.7,29.0,30.26,North,9,0.0,0.0,86,0.00,CLR,,0.00,WeatherDisplay:10.37,2013-11-08 11:32:00,
2013-11-08 06:37:00,32.5,28.8,30.26,North,9,0.0,0.0,86,0.00,CLR,,0.00,WeatherDisplay:10.37,2013-11-08 11:37:00,
2013-11-08 06:42:00,32.4,29.0,30.26,North,9,0.0,0.0,87,0.00,CLR,,0.00,WeatherDisplay:10.37,2013-11-08 11:42:00,
2013-11-08 06:47:00,32.4,29.0,30.27,North,9,0.0,0.0,87,0.00,CLR,,0.00,WeatherDisplay:10.37,2013-11-08 11:47:00,
2013-11-08 06:52:00,32.4,29.2,30.27,North,9,0.0,0.0,88,0.00,CLR,,0.00,WeatherDisplay:10.37,2013-11-08 11:52:00,
2013-11-08 06:57:00,32.4,29.2,30.27,North,9,0.0,0.0,88,0.00,CLR,,0.00,WeatherDisplay:10.37,2013-11-08 11:57:00,
2013-11-08 07:02:00,32.4,29.2,30.28,North,9,0.0,0.0,88,0.00,CLR,,0.00,WeatherDisplay:10.37,2013-11-08 12:02:00,
2013-11-08 07:07:00,32.4,29.0,30.28,North,9,0.0,0.0,87,0.00,CLR,,0.00,WeatherDisplay:10.37,2013-11-08 12:07:00,
2013-11-08 07:12:00,32.4,29.2,30.28,North,9,0.0,0.0,88,0.00,CLR,,0.00,WeatherDisplay:10.37,2013-11-08 12:12:00,
2013-11-08 07:17:00,32.4,29.2,30.28,North,9,0.0,0.0,88,0.00,CLR,,0.00,WeatherDisplay:10.37,2013-11-08 12:17:00,
2013-11-08 07:22:00,32.5,29.3,30.28,North,9,0.0,0.0,88,0.00,CLR,,0.00,WeatherDisplay:10.37,2013-11-08 12:22:00,
2013-11-08 07:27:00,32.6,29.4,30.28,North,9,0.0,0.0,88,0.00,CLR,,0.00,WeatherDisplay:10.37,2013-11-08 12:27:00,
2013-11-08 07:32:00,32.7,29.8,30.28,North,9,0.0,0.0,89,0.00,CLR,,0.00,WeatherDisplay:10.37,2013-11-08 12:32:00,
2013-11-08 07:37:00,32.8,29.9,30.28,North,9,0.0,0.0,89,0.00,CLR,,0.00,WeatherDisplay:10.37,2013-11-08 12:37:00,
2013-11-08 07:42:00,32.9,30.0,30.29,North,9,0.0,0.0,89,0.00,CLR,,0.00,WeatherDisplay:10.37,2013-11-08 12:42:00,
2013-11-08 07:47:00,33.0,30.1,30.29,North,9,0.0,0.0,89,0.00,CLR,,0.00,WeatherDisplay:10.37,2013-11-08 12:47:00,
2013-11-08 07:52:00,33.2,30.3,30.29,North,9,0.0,0.0,89,0.00,CLR,,0.00,WeatherDisplay:10.37,2013-11-08 12:52:00,
2013-11-08 07:57:00,33.4,30.5,30.30,North,9,0.0,0.0,89,0.00,CLR,,0.00,WeatherDisplay:10.37,2013-11-08 12:57:00,
2013-11-08 08:02:00,33.8,30.9,30.30,North,9,0.0,0.0,89,0.00,CLR,,0.00,WeatherDisplay:10.37,2013-11-08 13:02:00,
2013-11-08 08:07:00,34.7,31.2,30.30,North,9,0.0,0.0,87,0.00,CLR,,0.00,WeatherDisplay:10.37,2013-11-08 13:07:00,
2013-11-08 08:12:00,35.8,31.7,30.30,North,9,0.0,0.0,85,0.00,CLR,,0.00,WeatherDisplay:10.37,2013-11-08 13:12:00,
2013-11-08 08:17:00,37.6,34.1,30.30,North,9,0.0,0.0,87,0.00,CLR,,0.00,WeatherDisplay:10.37,2013-11-08 13:17:00,
2013-11-08 08:22:00,38.6,34.2,30.30,SE,145,0.0,0.0,84,0.00,CLR,,0.00,WeatherDisplay:10.37,2013-11-08 13:22:00,
2013-11-08 08:27:00,39.6,35.5,30.30,SE,145,0.0,0.0,85,0.00,CLR,,0.00,WeatherDisplay:10.37,2013-11-08 13:27:00,
2013-11-08 08:32:00,40.3,35.2,30.30,SE,145,0.0,0.0,82,0.00,CLR,,0.00,WeatherDisplay:10.37,2013-11-08 13:32:00,
2013-11-08 08:37:00,41.2,34.5,30.31,SE,145,0.0,0.0,77,0.00,CLR,,0.00,WeatherDisplay:10.37,2013-11-08 13:37:00,
2013-11-08 08:42:00,42.4,32.6,30.31,SE,145,0.0,0.0,68,0.00,CLR,,0.00,WeatherDisplay:10.37,2013-11-08 13:42:00,
2013-11-08 08:47:00,44.0,31.8,30.31,East,81,0.0,0.0,62,0.00,CLR,,0.00,WeatherDisplay:10.37,2013-11-08 13:47:00,
2013-11-08 08:52:00,45.1,33.2,30.31,NW,320,0.0,0.0,63,0.00,CLR,,0.00,WeatherDisplay:10.37,2013-11-08 13:52:00,
2013-11-08 08:57:00,45.8,32.3,30.32,NW,321,0.0,0.0,59,0.00,CLR,,0.00,WeatherDisplay:10.37,2013-11-08 13:57:00,
2013-11-08 09:02:00,46.3,31.9,30.32,North,360,0.0,0.0,57,0.00,CLR,,0.00,WeatherDisplay:10.37,2013-11-08 14:02:00,
2013-11-08 09:07:00,46.7,32.3,30.32,ENE,60,3.5,3.5,57,0.00,CLR,,0.00,WeatherDisplay:10.37,2013-11-08 14:07:00,
2013-11-08 09:12:00,46.7,31.8,30.31,ENE,60,3.5,3.5,56,0.00,CLR,,0.00,WeatherDisplay:10.37,2013-11-08 14:12:00,
2013-11-08 09:17:00,46.8,31.5,30.32,East,80,3.5,3.5,55,0.00,CLR,,0.00,WeatherDisplay:10.37,2013-11-08 14:17:00,
2013-11-08 09:22:00,47.0,31.2,30.32,East,80,3.5,3.5,54,0.00,CLR,,0.00,WeatherDisplay:10.37,2013-11-08 14:22:00,
2013-11-08 09:27:00,47.2,31.4,30.32,WNW,303,3.5,3.5,54,0.00,CLR,,0.00,WeatherDisplay:10.37,2013-11-08 14:27:00,
2013-11-08 09:32:00,47.4,31.6,30.32,North,360,0.0,0.0,54,0.00,CLR,,0.00,WeatherDisplay:10.37,2013-11-08 14:32:00,
2013-11-08 09:37:00,47.8,32.9,30.32,SW,216,0.0,0.0,56,0.00,CLR,,0.00,WeatherDisplay:10.37,2013-11-08 14:37:00,
2013-11-08 09:42:00,48.2,32.8,30.32,West,265,3.0,3.0,55,0.00,CLR,,0.00,WeatherDisplay:10.37,2013-11-08 14:42:00,
2013-11-08 09:47:00,48.5,31.7,30.32,NNW,330,0.0,0.0,52,0.00,CLR,,0.00,WeatherDisplay:10.37,2013-11-08 14:47:00,
2013-11-08 09:52:00,48.6,31.8,30.32,WNW,288,2.3,2.3,52,0.00,CLR,,0.00,WeatherDisplay:10.37,2013-11-08 14:52:00,
2013-11-08 09:57:00,48.8,32.4,30.32,NW,304,3.5,3.5,53,0.00,CLR,,0.00,WeatherDisplay:10.37,2013-11-08 14:57:00,
2013-11-08 10:02:00,49.1,32.2,30.32,NW,304,0.0,0.0,52,0.00,CLR,,0.00,WeatherDisplay:10.37,2013-11-08 15:02:00,
2013-11-08 10:07:00,49.5,32.1,30.32,NNW,343,3.5,0.0,51,0.00,CLR,,0.00,WeatherDisplay:10.37,2013-11-08 15:07:00,
2013-11-08 10:12:00,50.0,32.1,30.32,West,266,3.5,3.5,50,0.00,CLR,,0.00,WeatherDisplay:10.37,2013-11-08 15:12:00,
2013-11-08 10:17:00,50.3,32.4,30.32,WNW,299,1.2,0.0,50,0.00,CLR,,0.00,WeatherDisplay:10.37,2013-11-08 15:17:00,
2013-11-08 10:22:00,50.6,31.6,30.32,North,349,0.0,0.0,48,0.00,CLR,,0.00,WeatherDisplay:10.37,2013-11-08 15:22:00,
2013-11-08 10:27:00,50.9,30.8,30.32,NW,323,3.5,3.5,46,0.00,CLR,,0.00,WeatherDisplay:10.37,2013-11-08 15:27:00,
2013-11-08 10:32:00,51.2,32.2,30.32,WSW,244,4.6,4.6,48,0.00,CLR,,0.00,WeatherDisplay:10.37,2013-11-08 15:32:00,
2013-11-08 10:37:00,51.4,31.8,30.32,WNW,291,4.0,4.0,47,0.00,CLR,,0.00,WeatherDisplay:10.37,2013-11-08 15:37:00,
2013-11-08 10:42:00,51.4,30.7,30.32,NW,306,12.7,12.7,45,0.00,CLR,,0.00,WeatherDisplay:10.37,2013-11-08 15:42:00,
2013-11-08 10:47:00,51.3,30.7,30.32,West,275,11.0,11.0,45,0.00,CLR,,0.00,WeatherDisplay:10.37,2013-11-08 15:47:00,
2013-11-08 10:52:00,51.2,30.6,30.32,WSW,253,10.4,10.4,45,0.00,CLR,,0.00,WeatherDisplay:10.37,2013-11-08 15:52:00,
2013-11-08 10:57:00,51.3,31.2,30.32,NNW,342,4.0,4.0,46,0.00,CLR,,0.00,WeatherDisplay:10.37,2013-11-08 15:57:00,
2013-11-08 11:02:00,51.4,31.3,30.32,NNW,336,3.5,3.5,46,0.00,CLR,,0.00,WeatherDisplay:10.37,2013-11-08 16:02:00,
2013-11-08 11:07:00,51.7,30.5,30.32,West,268,8.0,8.0,44,0.00,CLR,,0.00,WeatherDisplay:10.37,2013-11-08 16:07:00,
2013-11-08 11:12:00,51.9,30.6,30.32,West,276,10.4,10.4,44,0.00,CLR,,0.00,WeatherDisplay:10.37,2013-11-08 16:12:00,
2013-11-08 11:17:00,52.1,29.7,30.32,West,273,9.2,9.2,42,0.00,CLR,,0.00,WeatherDisplay:10.37,2013-11-08 16:17:00,
2013-11-08 11:22:00,52.2,29.8,30.32,West,270,5.8,5.8,42,0.00,CLR,,0.00,WeatherDisplay:10.37,2013-11-08 16:22:00,
2013-11-08 11:27:00,52.4,29.4,30.32,West,280,9.2,9.2,41,0.00,CLR,,0.00,WeatherDisplay:10.37,2013-11-08 16:27:00,
2013-11-08 11:32:00,52.6,28.9,30.32,WNW,284,12.7,12.7,40,0.00,CLR,,0.00,WeatherDisplay:10.37,2013-11-08 16:32:00,
2013-11-08 11:37:00,52.7,28.4,30.32,NW,322,1.0,0.0,39,0.00,CLR,,0.00,WeatherDisplay:10.37,2013-11-08 16:37:00,
2013-11-08 11:42:00,52.8,29.7,30.32,West,265,10.4,10.4,41,0.00,CLR,,0.00,WeatherDisplay:10.37,2013-11-08 16:42:00,
2013-11-08 11:47:00,53.2,28.9,30.31,NNW,335,11.0,11.0,39,0.00,CLR,,0.00,WeatherDisplay:10.37,2013-11-08 16:47:00,
2013-11-08 11:52:00,53.5,29.1,30.31,NNW,333,6.9,6.9,39,0.00,CLR,,0.00,WeatherDisplay:10.37,2013-11-08 16:52:00,
2013-11-08 11:57:00,53.8,28.8,30.31,North,355,10.4,10.4,38,0.00,CLR,,0.00,WeatherDisplay:10.37,2013-11-08 16:57:00,
2013-11-08 12:02:00,54.1,28.4,30.31,NNW,346,11.5,11.5,37,0.00,CLR,,0.00,WeatherDisplay:10.37,2013-11-08 17:02:00,
2013-11-08 12:07:00,54.2,28.5,30.30,NNW,329,11.5,11.5,37,0.00,CLR,,0.00,WeatherDisplay:10.37,2013-11-08 17:07:00,
2013-11-08 12:12:00,54.2,28.5,30.30,NW,325,3.5,3.5,37,0.00,CLR,,0.00,WeatherDisplay:10.37,2013-11-08 17:12:00,
2013-11-08 12:17:00,54.4,28.6,30.29,NNW,344,5.8,5.8,37,0.00,CLR,,0.00,WeatherDisplay:10.37,2013-11-08 17:17:00,
2013-11-08 12:22:00,54.5,28.7,30.29,NW,310,11.5,11.5,37,0.00,CLR,,0.00,WeatherDisplay:10.37,2013-11-08 17:22:00,
2013-11-08 12:27:00,54.5,28.7,30.29,NNW,339,6.9,6.9,37,0.00,CLR,,0.00,WeatherDisplay:10.37,2013-11-08 17:27:00,
2013-11-08 12:32:00,54.8,29.0,30.28,NNE,13,4.6,4.6,37,0.00,CLR,,0.00,WeatherDisplay:10.37,2013-11-08 17:32:00,
2013-11-08 12:37:00,55.0,29.2,30.28,West,263,11.5,11.5,37,0.00,CLR,,0.00,WeatherDisplay:10.37,2013-11-08 17:37:00,
2013-11-08 12:42:00,55.0,29.2,30.28,West,279,6.9,6.9,37,0.00,CLR,,0.00,WeatherDisplay:10.37,2013-11-08 17:42:00,
2013-11-08 12:47:00,55.0,28.5,30.28,WNW,292,4.6,4.6,36,0.00,CLR,,0.00,WeatherDisplay:10.37,2013-11-08 17:47:00,
2013-11-08 12:52:00,55.4,29.5,30.27,West,268,8.1,8.1,37,0.00,CLR,,0.00,WeatherDisplay:10.37,2013-11-08 17:52:00,
2013-11-08 12:57:00,56.0,30.1,30.27,WNW,291,1.2,0.0,37,0.00,CLR,,0.00,WeatherDisplay:10.37,2013-11-08 17:57:00,
2013-11-08 13:02:00,56.4,28.3,30.27,NE,48,11.5,11.5,34,0.00,CLR,,0.00,WeatherDisplay:10.37,2013-11-08 18:02:00,
2013-11-08 13:07:00,56.7,28.6,30.27,NNE,17,5.0,5.0,34,0.00,CLR,,0.00,WeatherDisplay:10.37,2013-11-08 18:07:00,
2013-11-08 13:12:00,56.9,28.1,30.26,West,263,5.0,5.0,33,0.00,CLR,,0.00,WeatherDisplay:10.37,2013-11-08 18:12:00,
2013-11-08 13:17:00,57.2,28.3,30.26,NE,53,6.0,6.0,33,0.00,CLR,,0.00,WeatherDisplay:10.37,2013-11-08 18:17:00,
2013-11-08 13:22:00,57.3,28.4,30.26,NW,318,5.8,5.8,33,0.00,CLR,,0.00,WeatherDisplay:10.37,2013-11-08 18:22:00,
2013-11-08 13:27:00,57.3,27.7,30.26,North,10,10.4,10.4,32,0.00,CLR,,0.00,WeatherDisplay:10.37,2013-11-08 18:27:00,
2013-11-08 13:32:00,57.2,26.8,30.26,NNE,19,10.0,10.0,31,0.00,CLR,,0.00,WeatherDisplay:10.37,2013-11-08 18:32:00,
2013-11-08 13:37:00,57.2,28.3,30.25,North,360,0.0,0.0,33,0.00,CLR,,0.00,WeatherDisplay:10.37,2013-11-08 18:37:00,
2013-11-08 13:42:00,57.6,27.2,30.25,North,360,3.5,3.5,31,0.00,CLR,,0.00,WeatherDisplay:10.37,2013-11-08 18:42:00,
2013-11-08 13:47:00,57.9,26.6,30.25,NNW,344,10.4,10.4,30,0.00,CLR,,0.00,WeatherDisplay:10.37,2013-11-08 18:47:00,
2013-11-08 13:52:00,58.2,26.9,30.25,NNW,336,8.1,8.1,30,0.00,CLR,,0.00,WeatherDisplay:10.37,2013-11-08 18:52:00,
2013-11-08 13:57:00,58.4,26.2,30.25,WSW,257,5.8,5.8,29,0.00,CLR,,0.00,WeatherDisplay:10.37,2013-11-08 18:57:00,
2013-11-08 14:02:00,58.4,26.2,30.25,West,261,11.5,11.5,29,0.00,CLR,,0.00,WeatherDisplay:10.37,2013-11-08 19:02:00,
2013-11-08 14:07:00,58.4,27.9,30.25,NW,310,5.0,5.0,31,0.00,CLR,,0.00,WeatherDisplay:10.37,2013-11-08 19:07:00,
2013-11-08 14:12:00,58.6,26.4,30.25,West,281,4.6,4.6,29,0.00,CLR,,0.00,WeatherDisplay:10.37,2013-11-08 19:12:00,
2013-11-08 14:17:00,58.6,26.4,30.25,WNW,299,4.0,4.0,29,0.00,CLR,,0.00,WeatherDisplay:10.37,2013-11-08 19:17:00,
2013-11-08 14:22:00,58.6,25.6,30.25,North,349,9.2,9.2,28,0.00,CLR,,0.00,WeatherDisplay:10.37,2013-11-08 19:22:00,
2013-11-08 14:27:00,58.7,27.3,30.25,WNW,302,10.4,10.4,30,0.00,CLR,,0.00,WeatherDisplay:10.37,2013-11-08 19:27:00,
2013-11-08 14:32:00,58.8,26.6,30.25,NW,313,0.0,0.0,29,0.00,CLR,,0.00,WeatherDisplay:10.37,2013-11-08 19:32:00,
2013-11-08 14:37:00,59.0,25.9,30.25,NW,309,11.5,11.5,28,0.00,CLR,,0.00,WeatherDisplay:10.37,2013-11-08 19:37:00,
2013-11-08 14:42:00,59.0,25.9,30.25,NW,307,6.9,6.9,28,0.00,CLR,,0.00,WeatherDisplay:10.37,2013-11-08 19:42:00,
2013-11-08 14:47:00,59.0,25.9,30.25,NW,325,4.6,4.6,28,0.00,CLR,,0.00,WeatherDisplay:10.37,2013-11-08 19:47:00,
2013-11-08 14:52:00,59.0,25.9,30.25,NW,314,6.0,6.0,28,0.00,CLR,,0.00,WeatherDisplay:10.37,2013-11-08 19:52:00,
2013-11-08 14:57:00,59.0,25.9,30.25,NW,317,4.0,4.0,28,0.00,CLR,,0.00,WeatherDisplay:10.37,2013-11-08 19:57:00,
2013-11-08 15:02:00,59.0,26.8,30.25,WNW,285,6.0,6.0,29,0.00,CLR,,0.00,WeatherDisplay:10.37,2013-11-08 20:02:00,
2013-11-08 15:07:00,59.0,26.8,30.25,West,271,7.0,7.0,29,0.00,CLR,,0.00,WeatherDisplay:10.37,2013-11-08 20:07:00,
2013-11-08 15:12:00,59.0,25.9,30.25,West,267,4.6,4.6,28,0.00,CLR,,0.00,WeatherDisplay:10.37,2013-11-08 20:12:00,
2013-11-08 15:17:00,59.0,26.8,30.25,NNW,329,5.8,5.8,29,0.00,CLR,,0.00,WeatherDisplay:10.37,2013-11-08 20:17:00,
2013-11-08 15:22:00,59.0,25.9,30.25,NNW,327,1.2,0.0,28,0.00,CLR,,0.00,WeatherDisplay:10.37,2013-11-08 20:22:00,
2013-11-08 15:27:00,59.0,25.9,30.25,NNW,348,4.0,4.0,28,0.00,CLR,,0.00,WeatherDisplay:10.37,2013-11-08 20:27:00,
2013-11-08 15:32:00,59.0,25.9,30.25,NNE,26,3.5,3.5,28,0.00,CLR,,0.00,WeatherDisplay:10.37,2013-11-08 20:32:00,
2013-11-08 15:37:00,59.0,26.8,30.25,North,355,1.2,1.2,29,0.00,CLR,,0.00,WeatherDisplay:10.37,2013-11-08 20:37:00,
2013-11-08 15:42:00,59.0,25.9,30.25,NW,306,2.3,2.3,28,0.00,CLR,,0.00,WeatherDisplay:10.37,2013-11-08 20:42:00,
2013-11-08 15:47:00,59.0,25.9,30.25,NNE,15,4.6,4.6,28,0.00,CLR,,0.00,WeatherDisplay:10.37,2013-11-08 20:47:00,
2013-11-08 15:52:00,59.0,25.9,30.25,NE,36,10.0,10.0,28,0.00,CLR,,0.00,WeatherDisplay:10.37,2013-11-08 20:52:00,
2013-11-08 15:57:00,58.8,25.7,30.26,NE,42,3.5,3.5,28,0.00,CLR,,0.00,WeatherDisplay:10.37,2013-11-08 20:57:00,
2013-11-08 16:02:00,58.5,25.5,30.26,NNW,338,3.5,3.5,28,0.00,CLR,,0.00,WeatherDisplay:10.37,2013-11-08 21:02:00,
2013-11-08 16:07:00,58.4,25.4,30.25,North,355,3.5,3.5,28,0.00,CLR,,0.00,WeatherDisplay:10.37,2013-11-08 21:07:00,
2013-11-08 16:12:00,58.4,26.2,30.25,NNW,327,2.0,2.0,29,0.00,CLR,,0.00,WeatherDisplay:10.37,2013-11-08 21:12:00,
2013-11-08 16:17:00,58.2,25.2,30.26,NNE,16,0.0,0.0,28,0.00,CLR,,0.00,WeatherDisplay:10.37,2013-11-08 21:17:00,
2013-11-08 16:22:00,58.1,25.1,30.26,North,355,0.0,0.0,28,0.00,CLR,,0.00,WeatherDisplay:10.37,2013-11-08 21:22:00,
2013-11-08 16:27:00,58.0,25.0,30.26,North,355,3.5,3.5,28,0.00,CLR,,0.00,WeatherDisplay:10.37,2013-11-08 21:27:00,
2013-11-08 16:32:00,58.0,25.9,30.26,NNW,333,2.3,2.3,29,0.00,CLR,,0.00,WeatherDisplay:10.37,2013-11-08 21:32:00,
2013-11-08 16:37:00,57.9,25.8,30.26,NNE,13,2.3,0.0,29,0.00,CLR,,0.00,WeatherDisplay:10.37,2013-11-08 21:37:00,
2013-11-08 16:42:00,57.7,25.6,30.26,North,351,0.0,0.0,29,0.00,CLR,,0.00,WeatherDisplay:10.37,2013-11-08 21:42:00,
2013-11-08 16:47:00,57.4,25.4,30.26,North,355,0.0,0.2,29,0.00,CLR,,0.00,WeatherDisplay:10.37,2013-11-08 21:47:00,
2013-11-08 16:52:00,57.1,25.1,30.26,North,355,0.0,0.0,29,0.00,CLR,,0.00,WeatherDisplay:10.37,2013-11-08 21:52:00,
2013-11-08 16:57:00,56.9,24.9,30.27,North,355,2.3,0.0,29,0.00,CLR,,0.00,WeatherDisplay:10.37,2013-11-08 21:57:00,
2013-11-08 17:02:00,56.7,24.8,30.26,North,355,0.0,0.0,29,0.00,CLR,,0.00,WeatherDisplay:10.37,2013-11-08 22:02:00,
2013-11-08 17:07:00,56.5,25.4,30.27,North,355,0.0,0.0,30,0.00,CLR,,0.00,WeatherDisplay:10.37,2013-11-08 22:07:00,
2013-11-08 17:12:00,56.1,25.1,30.27,North,360,0.0,0.0,30,0.00,CLR,,0.00,WeatherDisplay:10.37,2013-11-08 22:12:00,
2013-11-08 17:17:00,55.6,25.4,30.27,North,355,0.0,0.0,31,0.00,CLR,,0.00,WeatherDisplay:10.37,2013-11-08 22:17:00,
2013-11-08 17:22:00,55.0,25.6,30.27,North,355,0.0,0.0,32,0.00,CLR,,0.00,WeatherDisplay:10.37,2013-11-08 22:22:00,
2013-11-08 17:27:00,54.5,26.0,30.27,North,10,2.3,0.0,33,0.00,CLR,,0.00,WeatherDisplay:10.37,2013-11-08 22:27:00,
2013-11-08 17:32:00,53.9,26.1,30.27,North,10,0.0,0.0,34,0.00,CLR,,0.00,WeatherDisplay:10.37,2013-11-08 22:32:00,
2013-11-08 17:37:00,53.5,25.8,30.27,North,10,0.0,0.0,34,0.00,CLR,,0.00,WeatherDisplay:10.37,2013-11-08 22:37:00,
2013-11-08 17:42:00,53.1,26.1,30.27,North,10,0.0,0.0,35,0.00,CLR,,0.00,WeatherDisplay:10.37,2013-11-08 22:42:00,
2013-11-08 17:47:00,52.5,25.6,30.27,North,10,0.0,0.0,35,0.00,CLR,,0.00,WeatherDisplay:10.37,2013-11-08 22:47:00,
2013-11-08 17:52:00,51.9,25.1,30.27,North,10,0.0,0.0,35,0.00,CLR,,0.00,WeatherDisplay:10.37,2013-11-08 22:52:00,
2013-11-08 17:57:00,51.5,25.4,30.27,North,10,0.0,0.0,36,0.00,CLR,,0.00,WeatherDisplay:10.37,2013-11-08 22:57:00,
2013-11-08 18:02:00,51.1,25.0,30.28,North,10,0.0,0.0,36,0.00,CLR,,0.00,WeatherDisplay:10.37,2013-11-08 23:02:00,
2013-11-08 18:07:00,50.7,26.0,30.28,North,10,0.0,0.0,38,0.00,CLR,,0.00,WeatherDisplay:10.37,2013-11-08 23:07:00,
2013-11-08 18:12:00,50.3,25.0,30.28,North,10,0.0,0.0,37,0.00,CLR,,0.00,WeatherDisplay:10.37,2013-11-08 23:12:00,
2013-11-08 18:17:00,50.0,25.4,30.28,North,10,0.0,0.0,38,0.00,CLR,,0.00,WeatherDisplay:10.37,2013-11-08 23:17:00,
2013-11-08 18:22:00,49.7,25.1,30.28,North,10,0.0,0.0,38,0.00,CLR,,0.00,WeatherDisplay:10.37,2013-11-08 23:22:00,
2013-11-08 18:27:00,49.3,24.7,30.29,North,10,0.0,0.0,38,0.00,CLR,,0.00,WeatherDisplay:10.37,2013-11-08 23:27:00,
2013-11-08 18:32:00,49.1,24.6,30.29,North,10,0.0,0.0,38,0.00,CLR,,0.00,WeatherDisplay:10.37,2013-11-08 23:32:00,
2013-11-08 18:37:00,48.8,24.9,30.30,North,10,0.0,0.0,39,0.00,CLR,,0.00,WeatherDisplay:10.37,2013-11-08 23:37:00,
2013-11-08 18:42:00,48.6,25.3,30.30,North,10,0.0,0.0,40,0.00,CLR,,0.00,WeatherDisplay:10.37,2013-11-08 23:42:00,
2013-11-08 18:47:00,48.3,25.7,30.30,North,10,0.0,0.0,41,0.00,CLR,,0.00,WeatherDisplay:10.37,2013-11-08 23:47:00,
2013-11-08 18:52:00,48.1,25.5,30.30,North,10,0.0,0.0,41,0.00,CLR,,0.00,WeatherDisplay:10.37,2013-11-08 23:52:00,
2013-11-08 18:57:00,47.8,25.2,30.30,North,10,0.0,0.0,41,0.00,CLR,,0.00,WeatherDisplay:10.37,2013-11-08 23:57:00,
2013-11-08 19:02:00,47.6,25.6,30.30,North,10,0.0,0.0,42,0.00,CLR,,0.00,WeatherDisplay:10.37,2013-11-09 00:02:00,
2013-11-08 19:07:00,47.4,25.4,30.30,North,10,0.0,0.0,42,0.00,CLR,,0.00,WeatherDisplay:10.37,2013-11-09 00:07:00,
2013-11-08 19:12:00,47.2,25.3,30.31,North,10,0.0,0.0,42,0.00,CLR,,0.00,WeatherDisplay:10.37,2013-11-09 00:12:00,
2013-11-08 19:17:00,47.0,25.6,30.31,North,10,0.0,0.0,43,0.00,CLR,,0.00,WeatherDisplay:10.37,2013-11-09 00:17:00,
2013-11-08 19:22:00,46.8,25.5,30.31,North,10,0.0,0.0,43,0.00,CLR,,0.00,WeatherDisplay:10.37,2013-11-09 00:22:00,
2013-11-08 19:27:00,46.6,25.3,30.31,North,10,0.0,0.0,43,0.00,CLR,,0.00,WeatherDisplay:10.37,2013-11-09 00:27:00,
2013-11-08 19:32:00,46.3,25.6,30.31,North,10,0.0,0.0,44,0.00,CLR,,0.00,WeatherDisplay:10.37,2013-11-09 00:32:00,
2013-11-08 19:37:00,46.0,25.8,30.31,North,10,0.0,0.0,45,0.00,CLR,,0.00,WeatherDisplay:10.37,2013-11-09 00:37:00,
2013-11-08 19:42:00,45.6,25.5,30.31,North,10,0.0,0.0,45,0.00,CLR,,0.00,WeatherDisplay:10.37,2013-11-09 00:42:00,
2013-11-08 19:47:00,45.3,25.2,30.31,North,10,0.0,0.0,45,0.00,CLR,,0.00,WeatherDisplay:10.37,2013-11-09 00:47:00,
2013-11-08 19:52:00,45.0,25.4,30.31,North,10,0.0,0.0,46,0.00,CLR,,0.00,WeatherDisplay:10.37,2013-11-09 00:52:00,
2013-11-08 19:57:00,44.8,25.8,30.31,North,10,0.0,0.0,47,0.00,CLR,,0.00,WeatherDisplay:10.37,2013-11-09 00:57:00,
2013-11-08 20:02:00,44.5,26.5,30.31,North,10,0.0,0.0,49,0.00,CLR,,0.00,WeatherDisplay:10.37,2013-11-09 01:02:00,
2013-11-08 20:07:00,44.0,26.0,30.32,North,10,0.0,0.0,49,0.00,CLR,,0.00,WeatherDisplay:10.37,2013-11-09 01:07:00,
2013-11-08 20:12:00,43.8,25.4,30.31,North,10,0.0,0.0,48,0.00,CLR,,0.00,WeatherDisplay:10.37,2013-11-09 01:12:00,
2013-11-08 20:17:00,43.6,26.2,30.31,North,10,0.0,0.0,50,0.00,CLR,,0.00,WeatherDisplay:10.37,2013-11-09 01:17:00,
2013-11-08 20:22:00,43.1,26.2,30.31,North,10,0.0,0.0,51,0.00,CLR,,0.00,WeatherDisplay:10.37,2013-11-09 01:22:00,
2013-11-08 20:27:00,42.7,25.8,30.31,North,10,0.0,0.0,51,0.00,CLR,,0.00,WeatherDisplay:10.37,2013-11-09 01:27:00,
2013-11-08 20:32:00,42.5,25.6,30.31,North,10,0.0,0.0,51,0.00,CLR,,0.00,WeatherDisplay:10.37,2013-11-09 01:32:00,
2013-11-08 20:37:00,42.5,25.6,30.32,North,10,0.0,0.0,51,0.00,CLR,,0.00,WeatherDisplay:10.37,2013-11-09 01:37:00,
2013-11-08 20:42:00,42.5,26.1,30.32,North,10,0.0,0.0,52,0.00,CLR,,0.00,WeatherDisplay:10.37,2013-11-09 01:42:00,
2013-11-08 20:47:00,42.5,25.6,30.32,North,10,0.0,0.0,51,0.00,CLR,,0.00,WeatherDisplay:10.37,2013-11-09 01:47:00,
2013-11-08 20:52:00,42.6,26.6,30.33,North,10,0.0,0.0,53,0.00,CLR,,0.00,WeatherDisplay:10.37,2013-11-09 01:52:00,
2013-11-08 20:57:00,42.5,26.6,30.32,North,10,0.0,0.0,53,0.00,CLR,,0.00,WeatherDisplay:10.37,2013-11-09 01:57:00,
2013-11-08 21:02:00,42.4,26.9,30.33,North,10,0.0,0.0,54,0.00,CLR,,0.00,WeatherDisplay:10.37,2013-11-09 02:02:00,
2013-11-08 21:07:00,42.1,27.5,30.32,North,10,0.0,0.0,56,0.00,CLR,,0.00,WeatherDisplay:10.37,2013-11-09 02:07:00,
2013-11-08 21:12:00,41.6,27.1,30.33,North,10,0.0,0.0,56,0.00,CLR,,0.00,WeatherDisplay:10.37,2013-11-09 02:12:00,
2013-11-08 21:17:00,41.2,27.5,30.33,North,10,0.0,0.0,58,0.00,CLR,,0.00,WeatherDisplay:10.37,2013-11-09 02:17:00,
2013-11-08 21:22:00,40.9,26.8,30.32,North,10,0.0,0.0,57,0.00,CLR,,0.00,WeatherDisplay:10.37,2013-11-09 02:22:00,
2013-11-08 21:27:00,40.6,25.7,30.33,North,10,0.0,0.0,55,0.00,CLR,,0.00,WeatherDisplay:10.37,2013-11-09 02:27:00,
2013-11-08 21:32:00,40.7,26.2,30.33,North,10,0.0,0.0,56,0.00,CLR,,0.00,WeatherDisplay:10.37,2013-11-09 02:32:00,
2013-11-08 21:37:00,40.6,26.1,30.33,North,10,0.0,0.0,56,0.00,CLR,,0.00,WeatherDisplay:10.37,2013-11-09 02:37:00,
2013-11-08 21:42:00,40.6,26.5,30.33,North,10,0.0,0.0,57,0.00,CLR,,0.00,WeatherDisplay:10.37,2013-11-09 02:42:00,
2013-11-08 21:47:00,40.5,26.9,30.34,North,10,0.0,0.0,58,0.00,CLR,,0.00,WeatherDisplay:10.37,2013-11-09 02:47:00,
2013-11-08 21:52:00,40.2,27.4,30.33,North,10,0.0,0.0,60,0.00,CLR,,0.00,WeatherDisplay:10.37,2013-11-09 02:52:00,
2013-11-08 21:57:00,40.0,27.2,30.34,North,10,0.0,0.0,60,0.00,CLR,,0.00,WeatherDisplay:10.37,2013-11-09 02:57:00,
2013-11-08 22:02:00,39.7,26.9,30.34,North,10,0.0,0.0,60,0.00,CLR,,0.00,WeatherDisplay:10.37,2013-11-09 03:02:00,
2013-11-08 22:07:00,39.5,26.8,30.33,North,10,0.0,0.0,60,0.00,CLR,,0.00,WeatherDisplay:10.37,2013-11-09 03:07:00,
2013-11-08 22:12:00,39.2,28.0,30.34,North,10,0.0,0.0,64,0.00,CLR,,0.00,WeatherDisplay:10.37,2013-11-09 03:12:00,
2013-11-08 22:17:00,39.0,27.1,30.33,North,10,0.0,0.0,62,0.00,CLR,,0.00,WeatherDisplay:10.37,2013-11-09 03:17:00,
2013-11-08 22:22:00,38.8,26.9,30.33,North,10,0.0,0.0,62,0.00,CLR,,0.00,WeatherDisplay:10.37,2013-11-09 03:22:00,
2013-11-08 22:27:00,38.7,27.6,30.33,North,10,0.0,0.0,64,0.00,CLR,,0.00,WeatherDisplay:10.37,2013-11-09 03:27:00,
2013-11-08 22:32:00,38.7,26.8,30.34,North,10,0.0,0.0,62,0.00,CLR,,0.00,WeatherDisplay:10.37,2013-11-09 03:32:00,
2013-11-08 22:37:00,38.8,26.9,30.34,North,10,0.0,0.0,62,0.00,CLR,,0.00,WeatherDisplay:10.37,2013-11-09 03:37:00,
2013-11-08 22:42:00,38.8,26.1,30.34,North,10,0.0,0.0,60,0.00,CLR,,0.00,WeatherDisplay:10.37,2013-11-09 03:42:00,
2013-11-08 22:47:00,39.0,25.5,30.34,North,10,0.0,0.0,58,0.00,CLR,,0.00,WeatherDisplay:10.37,2013-11-09 03:47:00,
2013-11-08 22:52:00,39.3,27.7,30.34,North,10,0.0,0.0,63,0.00,CLR,,0.00,WeatherDisplay:10.37,2013-11-09 03:52:00,
2013-11-08 22:57:00,39.4,27.5,30.34,North,10,0.0,0.0,62,0.00,CLR,,0.00,WeatherDisplay:10.37,2013-11-09 03:57:00,
2013-11-08 23:02:00,39.6,26.8,30.34,North,10,0.0,0.0,60,0.00,CLR,,0.00,WeatherDisplay:10.37,2013-11-09 04:02:00,
2013-11-08 23:07:00,39.7,26.9,30.34,North,10,0.0,0.0,60,0.00,CLR,,0.00,WeatherDisplay:10.37,2013-11-09 04:07:00,
2013-11-08 23:12:00,39.7,26.9,30.34,North,10,0.0,0.0,60,0.00,CLR,,0.00,WeatherDisplay:10.37,2013-11-09 04:12:00,
2013-11-08 23:17:00,39.8,26.6,30.34,North,10,0.0,0.0,59,0.00,CLR,,0.00,WeatherDisplay:10.37,2013-11-09 04:17:00,
2013-11-08 23:22:00,39.8,27.0,30.34,North,10,0.0,0.0,60,0.00,CLR,,0.00,WeatherDisplay:10.37,2013-11-09 04:22:00,
2013-11-08 23:27:00,39.7,27.3,30.34,North,10,0.0,0.0,61,0.00,CLR,,0.00,WeatherDisplay:10.37,2013-11-09 04:27:00,
2013-11-08 23:32:00,39.7,27.3,30.33,North,10,0.0,0.0,61,0.00,CLR,,0.00,WeatherDisplay:10.37,2013-11-09 04:32:00,
2013-11-08 23:37:00,39.6,26.4,30.33,North,10,0.0,0.0,59,0.00,CLR,,0.00,WeatherDisplay:10.37,2013-11-09 04:37:00,
2013-11-08 23:42:00,39.5,27.2,30.33,North,10,0.0,0.0,61,0.00,CLR,,0.00,WeatherDisplay:10.37,2013-11-09 04:42:00,
2013-11-08 23:47:00,39.4,26.7,30.34,North,10,0.0,0.0,60,0.00,CLR,,0.00,WeatherDisplay:10.37,2013-11-09 04:47:00,
2013-11-08 23:52:00,39.4,27.5,30.33,North,10,0.0,0.0,62,0.00,CLR,,0.00,WeatherDisplay:10.37,2013-11-09 04:52:00,
2013-11-08 23:57:00,39.4,26.2,30.34,North,10,0.0,0.0,59,0.00,CLR,,0.00,WeatherDisplay:10.37,2013-11-09 04:57:00,